Location: Courçay
(47.2523°N, 0.8761°E)
Time: 21:44:10
(UTC+00:00)

Helios 1A Rocket - Pass Details

Date: 18 November 2025
Orbit: 440 x 452 km, 98.3° (Epoch: 05 December)

Event Time Altitude Azimuth Distance (km) Brightness Sun altitude
Exits shadow 17:14:38 11° 98° (E) 1,505 4.5 -9.7°
Drops below altitude 10° 17:15:23 10° 111° (ESE) 1,575 4.7 -9.8°
Sets 17:18:41 0° 147° (SSE) 2,444 6.0 -10.3°
